Location: Killam
(52.7910°N, 111.8608°W)
Time: 09:57:08
(UTC+00:00)

FENGYUN 1C DEB - Pass Details

Date: 27 May 2024
Orbit: 795 x 992 km, 98.4° (Epoch: 16 June)

Event Time Altitude Azimuth Distance (km) Brightness Sun altitude
Rises 05:52:15 0° 16° (NNE) 3,317 ? -13.1°
Reaches altitude 10° 05:54:35 10° 18° (NNE) 2,390 ? -13.3°
Maximum altitude 05:59:50 73° 103° (ESE) 859 ? -13.6°
Enters shadow 06:04:09 16° 187° (S) 2,029 ? -13.8°
